This is the latest recevied weather packets stored in our database for station/object IZ8NVY-11. If no packets are shown the sender has not sent any weather packets the latest 10 day(s).
| Time | Temp. | Humidity | Pressure | Rain* | Wind** | Luminosity | Snow |
|---|---|---|---|---|---|---|---|
| 1777523670 | 15° C | 57% | 882.9 hPa | - | - | - | - |
| 1777523575 | 15° C | 57% | 882.9 hPa | - | - | - | - |
| 1777519975 | 14.44° C | 58% | 883.4 hPa | - | - | - | - |
| 1777516374 | 16.11° C | 57% | 883.7 hPa | - | - | - | - |
| 1777512774 | 17.22° C | 57% | 883.5 hPa | - | - | - | - |
| 1777509175 | 16.67° C | 56% | 883.3 hPa | - | - | - | - |
| 1777505572 | 17.22° C | 29% | 883.1 hPa | - | - | - | - |
| 1777501970 | 17.22° C | 29% | 883.7 hPa | - | - | - | - |
| 1777498369 | 17.78° C | 21% | 883.6 hPa | - | - | - | - |
| 1777494769 | 17.22° C | 29% | 884 hPa | - | - | - | - |
| 1777491168 | 16.67° C | 24% | 884 hPa | - | - | - | - |
| 1777487567 | 18.33° C | 23% | 883.2 hPa | - | - | - | - |
| 1777483966 | 18.89° C | 29% | 883.1 hPa | - | - | - | - |
| 1777480365 | 22.22° C | 28% | 883.1 hPa | - | - | - | - |
| 1777476764 | 25.56° C | 25% | 883.2 hPa | - | - | - | - |
| 1777473170 | 25.56° C | 26% | 883.4 hPa | - | - | - | - |
| 1777469563 | 25° C | 26% | 883.8 hPa | - | - | - | - |
| 1777465962 | 25° C | 26% | 884 hPa | - | - | - | - |
| 1777462361 | 25° C | 29% | 884.1 hPa | - | - | - | - |
| 1777458761 | 23.89° C | 31% | 884.4 hPa | - | - | - | - |
| 1777455160 | 22.78° C | 33% | 884.4 hPa | - | - | - | - |
| 1777451559 | 23.89° C | 34% | 884.2 hPa | - | - | - | - |
| 1777447958 | 23.33° C | 32% | 883.9 hPa | - | - | - | - |
| 1777444358 | 21.11° C | 30% | 883.6 hPa | - | - | - | - |
| 1777440760 | 17.22° C | 32% | 883.5 hPa | - | - | - | - |
* Rain since midnight (hover to see other rain measurements)
** Current wind speed in m/s (hover to see current wind gust speed)